FW4672 Weather Reports


Display with metric or nautical units.
time (UTC)temp
F
wind
direction
speed
MPH
gust
MPH
rain 1hr
in
rain 24hr
in
rain mn
in
humidity
%
barometer
mb
20260503200322 66 320 0.0 0.0 0.00 0.00 0.00 67 1033.1
20260503195321 66 317 0.0 0.0 0.00 0.00 0.00 68 1033.2
20260503194324 67 318 0.0 0.0 0.00 0.00 0.00 67 1033.2
20260503193421 67 323 0.0 0.0 0.00 0.00 0.00 67 1033.2
20260503192424 67 321 0.0 0.0 0.00 0.00 0.00 68 1033.2
20260503191423 67 320 0.0 0.0 0.00 0.00 0.00 69 1033.2
20260503185522 66 323 0.0 0.0 0.00 0.00 0.00 70 1033.4
20260503184522 65 331 0.0 0.0 0.00 0.00 0.00 70 1033.2
20260503182521 65 326 0.0 0.0 0.00 0.00 0.00 70 1033.4
20260503181524 65 329 0.0 0.0 0.00 0.00 0.00 72 1033.4
20260503175523 65 318 0.0 0.0 0.00 0.00 0.00 73 1033.4
20260503174621 65 327 0.0 0.0 0.00 0.00 0.00 73 1033.5
20260503173621 65 323 0.0 0.0 0.00 0.00 0.00 74 1033.4
20260503170623 65 317 0.0 0.0 0.00 0.00 0.00 77 1033.2
20260503150823 62 330 0.0 0.0 0.00 0.00 0.00 81 1032.9
20260503131023 60 328 0.0 0.0 0.00 0.00 0.00 83 1032.1
20260503120124 60 329 0.0 0.0 0.00 0.00 0.00 82 1031.5
20260503110221 60 329 0.0 0.0 0.00 0.00 0.00 81 1031.3
20260503080923 61 337 0.0 0.0 0.00 0.00 0.00 86 1032.3
20260503072922 61 315 0.0 0.0 0.00 0.00 0.00 86 1032.6
20260503070921 60 315 0.0 0.0 0.00 0.00 0.00 86 1032.7
20260503054927 61 333 0.0 0.0 0.00 0.00 0.00 88 1032.2
20260503053929 61 315 0.0 0.0 0.00 0.00 0.00 87 1032.4
20260503052929 61 316 0.0 0.0 0.00 0.00 0.00 88 1032.3
20260503051927 61 315 0.0 0.0 0.00 0.00 0.00 88 1032.2
20260503045927 61 315 0.0 0.0 0.00 0.00 0.00 87 1031.9
20260503044928 61 315 0.0 0.0 0.00 0.00 0.00 87 1031.6
20260503044027 61 329 0.0 0.0 0.00 0.00 0.00 87 1031.5
20260503043028 61 321 0.0 0.0 0.00 0.00 0.00 86 1031.5
20260503042029 61 315 0.0 0.0 0.00 0.00 0.00 86 1031.2
20260503041927 61 315 0.0 0.0 0.00 0.00 0.00 85 1031.1
20260503040929 61 316 0.0 0.0 0.00 0.00 0.00 86 1031.0
20260503035930 61 317 0.0 0.0 0.00 0.00 0.00 86 1030.8
20260503035026 61 337 0.0 0.0 0.00 0.00 0.00 85 1030.8
20260503034027 61 320 0.0 0.0 0.00 0.00 0.00 85 1030.8
20260503032028 61 315 0.0 0.0 0.00 0.00 0.00 86 1030.6
20260503031029 61 315 0.0 0.0 0.00 0.00 0.00 85 1030.4
20260503030029 61 315 0.0 0.0 0.00 0.00 0.00 84 1030.4
20260503025127 61 315 0.0 0.0 0.00 0.00 0.00 84 1030.3
20260503024128 61 340 0.0 0.0 0.00 0.00 0.00 84 1030.3
20260503023128 61 334 0.0 0.0 0.00 0.00 0.00 83 1030.3
20260503022129 61 320 0.0 0.0 0.00 0.00 0.00 84 1030.3
20260503021127 61 316 0.0 0.0 0.00 0.00 0.00 83 1030.1
20260503020127 61 337 0.0 0.0 0.00 0.00 0.00 83 1030.2
20260503012127 62 320 0.0 0.0 0.00 0.00 0.00 83 1030.1
20260503011128 62 321 0.0 0.0 0.00 0.00 0.00 81 1029.9
20260503010127 62 356 0.0 0.0 0.00 0.00 0.00 82 1030.1
20260503005130 63 316 0.0 0.0 0.00 0.00 0.00 82 1030.1
20260503004228 63 341 0.0 0.0 0.00 0.00 0.00 82 1030.0
20260503003326 63 342 0.0 0.0 0.00 0.00 0.00 80 1030.1
20260503001328 64 336 0.0 0.0 0.00 0.00 0.00 81 1030.3
20260503000327 64 318 0.0 0.0 0.00 0.00 0.00 81 1030.1
20260502235329 63 324 0.0 0.0 0.00 0.00 0.00 82 1030.0
20260502234329 64 320 0.0 0.0 0.00 0.00 0.00 81 1030.2
20260502233328 64 317 0.0 0.0 0.00 0.00 0.00 82 1030.2
20260502232327 65 316 0.0 0.0 0.00 0.00 0.00 80 1030.1
20260502231329 65 326 0.0 0.0 0.00 0.00 0.00 80 1030.1
20260502230427 65 320 0.0 0.0 0.00 0.00 0.00 80 1030.1
20260502225428 65 324 0.0 0.0 0.00 0.00 0.00 78 1030.3
20260502224428 65 330 0.0 0.0 0.00 0.00 0.00 80 1030.5
20260502223526 65 321 0.0 0.0 0.00 0.00 0.00 80 1030.7
20260502222530 66 317 0.0 0.0 0.00 0.00 0.00 79 1030.9
20260502221627 67 321 0.0 0.0 0.00 0.00 0.00 78 1031.0
20260502220628 67 326 0.0 0.0 0.00 0.00 0.00 78 1031.0
20260502212727 68 323 0.0 0.0 0.00 0.00 0.00 78 1031.4
20260502211728 69 320 0.0 0.0 0.00 0.00 0.00 77 1031.5
20260502210745 69 321 0.0 0.0 0.00 0.00 0.00 77 1031.4
20260502205729 69 320 0.0 0.0 0.00 0.00 0.00 78 1031.5
20260502204726 68 339 0.0 0.0 0.00 0.00 0.00 79 1031.4
20260502203728 67 322 0.0 0.0 0.00 0.00 0.00 79 1031.6
20260502202730 67 327 0.0 0.0 0.00 0.00 0.00 80 1031.7
20260502201729 68 317 0.0 0.0 0.00 0.00 0.00 78 1031.6
20260502200827 67 322 0.0 0.0 0.00 0.00 0.00 79 1031.6